TIANMU-1 13

Last updated on Tue Jul 01 2025 00:02:22 GMT+0000 (Coordinated Universal Time)

1 58647U 23205C 25181.52060636 .00003500 00000+0 15534-3 0 9995 2 58647 97.3727 204.1857 0009670 124.5429 235.6722 15.22185998 83922
UTC large
Height (km)
Speed (km/s)
/
Latitude / Longitude
Inclination (degrees)
Orbital Period (minutes)
Azimuth
Elevation
Range (km)
Doppler Factor

Next 0 passes for location: London (51.5072 / 0.1276)

Sorry there are no passes over London.